This is the latest recevied weather packets stored in our database for station/object KC4JIR. If no packets are shown the sender has not sent any weather packets the latest 10 day(s).
| Time | Temp. | Humidity | Pressure | Rain* | Wind** | Luminosity | Snow |
|---|---|---|---|---|---|---|---|
| 1777560525 | 22.22° C | 80% | 1008.5 hPa | 0 mm | - | 131 W/m² | - |
| 1777560223 | 22.22° C | 81% | 1008.4 hPa | 0 mm | - | 143 W/m² | - |
| 1777559919 | 22.22° C | 81% | 1008.6 hPa | 0 mm | - | 143 W/m² | - |
| 1777559615 | 21.67° C | 81% | 1008.3 hPa | 0 mm | - | 153 W/m² | - |
| 1777559313 | 21.67° C | 81% | 1007.9 hPa | 0 mm | - | 153 W/m² | - |
| 1777559008 | 22.22° C | 83% | 1008 hPa | 0 mm | - | 153 W/m² | - |
| 1777558704 | 22.22° C | 80% | 1007.8 hPa | 0 mm | - | 152 W/m² | - |
| 1777558400 | 22.22° C | 80% | 1007.6 hPa | 0 mm | - | 152 W/m² | - |
| 1777558097 | 22.22° C | 82% | 1007.6 hPa | 0 mm | - | 152 W/m² | - |
| 1777557794 | 21.67° C | 81% | 1007.4 hPa | 0 mm | - | 141 W/m² | - |
| 1777557490 | 21.67° C | 82% | 1007.9 hPa | 0 mm | - | 143 W/m² | - |
| 1777557187 | 21.67° C | 83% | 1007.9 hPa | 0 mm | - | 145 W/m² | - |
| 1777556882 | 21.67° C | 85% | 1008 hPa | 0 mm | - | 133 W/m² | - |
| 1777556578 | 21.11° C | 85% | 1008 hPa | 0 mm | - | 129 W/m² | - |
| 1777556278 | 21.11° C | 85% | 1007.9 hPa | 0 mm | - | 115 W/m² | - |
| 1777555974 | 21.11° C | 85% | 1008.1 hPa | 0 mm | - | 109 W/m² | - |
| 1777555669 | 21.11° C | 86% | 1008.3 hPa | 0 mm | - | 110 W/m² | - |
| 1777555366 | 21.11° C | 86% | 1008.3 hPa | 0 mm | - | 110 W/m² | - |
| 1777555062 | 21.11° C | 86% | 1008.2 hPa | 0 mm | - | 110 W/m² | - |
| 1777554760 | 21.11° C | 86% | 1008.2 hPa | 0 mm | - | 104 W/m² | - |
| 1777554457 | 21.11° C | 87% | 1008.3 hPa | 0 mm | - | 96 W/m² | - |
| 1777554153 | 21.11° C | 87% | 1008.4 hPa | 0 mm | - | 96 W/m² | - |
| 1777553851 | 21.11° C | 88% | 1008.3 hPa | 0 mm | - | 82 W/m² | - |
| 1777553547 | 21.11° C | 88% | 1008.4 hPa | 0 mm | - | 79 W/m² | - |
| 1777553242 | 21.11° C | 88% | 1008.4 hPa | 0 mm | - | 68 W/m² | - |
* Rain latest hour (hover to see other rain measurements)
** Current wind speed in m/s (hover to see current wind gust speed)